Location: ?????
(37.7324°N, 23.9257°E)
Time: 07:35:30
(UTC+00:00)

Lacrosse 5 - Pass Details

Date: 29 November 2020
Orbit: 713 x 726 km, 57.0° (Epoch: 16 January)

Event Time Altitude Azimuth Distance (km) Brightness Sun altitude
Exits shadow 04:32:06 12° 299° (WNW) 2,084 3.6 -9.4°
Maximum altitude 04:34:45 16° 333° (NNW) 1,799 3.5 -8.9°
Drops below altitude 10° 04:37:54 10° 12° (NNE) 2,195 4.3 -8.3°
Sets 04:41:10 0° 33° (NNE) 3,118 5.3 -7.7°
